Temp
-11 -11 -11 -11 -11 -11 -11 -11 -11 -11 -11 -11 -11 -11 -11 -11 -11 -11 -11 -11 -11 -11 -10 -10 -11 -11 -12 -12 -12 -13 -13 -13 -13 -13 -13 -13 -13 -13 -13 -14 -15 -18 -20 -19
-11 -11 -12 -11 -11 -11 -11 -11 -11 -11 -12 -11 -11 -11 -12 -12 -11 -11 -11 -11 -11 -11 -11 -11 -11 -11 -12 -12 -13 -13 -13 -13 -13 -13 -13 -14 -14 -14 -14 -15 -18 -20 -20 -20
-12 -12 -12 -12 -11 -11 -11 -12 -12 -12 -12 -12 -12 -11 -12 -12 -11 -11 -11 -11 -11 -11 -11 -11 -11 -12 -12 -12 -12 -13 -13 -13 -13 -13 -14 -14 -14 -13 -14 -15 -20 -20 -20 -20
-12 -12 -12 -12 -12 -12 -12 -12 -12 -12 -12 -12 -12 -11 -12 -12 -11 -11 -11 -11 -11 -11 -11 -11 -11 -12 -12 -12 -12 -12 -13 -13 -13 -13 -14 -14 -14 -14 -16 -18 -21 -21 -20 -20
-12 -13 -13 -12 -12 -12 -12 -12 -12 -12 -12 -12 -12 -12 -12 -12 -12 -11 -12 -11 -11 -11 -11 -11 -11 -12 -12 -12 -12 -13 -13 -13 -13 -14 -14 -14 -14 -15 -18 -19 -22 -22 -21 -21
-12 -13 -13 -13 -13 -13 -13 -13 -13 -13 -13 -13 -12 -13 -12 -12 -12 -12 -12 -12 -12 -11 -11 -11 -11 -11 -12 -12 -13 -13 -13 -13 -13 -14 -14 -14 -14 -16 -19 -20 -21 -22 -21 -21
-13 -13 -13 -13 -13 -13 -13 -13 -13 -13 -13 -13 -13 -13 -12 -13 -13 -12 -12 -12 -12 -12 -11 -11 -11 -11 -12 -12 -13 -13 -13 -13 -13 -14 -14 -14 -15 -16 -18 -20 -20 -21 -21 -21
-13 -13 -13 -13 -13 -13 -13 -13 -13 -13 -13 -13 -13 -13 -12 -13 -13 -13 -13 -12 -12 -12 -11 -11 -12 -12 -12 -12 -13 -13 -13 -13 -13 -14 -14 -14 -15 -16 -17 -19 -20 -20 -20 -20
-13 -13 -13 -13 -13 -14 -13 -13 -14 -14 -13 -13 -13 -13 -13 -13 -13 -13 -13 -13 -12 -12 -12 -12 -12 -12 -12 -12 -13 -13 -13 -13 -13 -14 -14 -14 -15 -15 -17 -18 -18 -19 -19 -19
-13 -13 -13 -13 -13 -13 -13 -13 -14 -14 -13 -13 -13 -13 -13 -13 -14 -14 -13 -13 -13 -13 -12 -12 -12 -12 -12 -12 -13 -13 -13 -13 -14 -14 -14 -14 -15 -15 -17 -18 -18 -18 -18 -18
-15 -14 -13 -13 -13 -14 -14 -14 -14 -14 -14 -13 -13 -13 -13 -14 -14 -14 -14 -14 -13 -13 -13 -12 -12 -12 -12 -13 -13 -13 -13 -13 -13 -13 -13 -14 -15 -15 -16 -17 -17 -17 -18 -17
-16 -15 -14 -14 -14 -14 -14 -13 -14 -14 -13 -13 -13 -14 -14 -14 -14 -14 -14 -14 -14 -14 -13 -13 -13 -12 -12 -13 -13 -13 -13 -13 -13 -14 -13 -14 -15 -14 -15 -14 -15 -15 -15 -16
-17 -16 -15 -15 -14 -14 -14 -14 -14 -14 -14 -13 -13 -13 -14 -14 -15 -15 -16 -15 -15 -14 -14 -13 -13 -13 -12 -13 -13 -13 -13 -13 -13 -13 -13 -13 -14 -14 -13 -14 -14 -15 -15 -15
-18 -17 -16 -16 -16 -15 -15 -15 -15 -14 -13 -13 -13 -14 -15 -15 -16 -16 -16 -15 -15 -15 -15 -14 -13 -13 -13 -13 -13 -13 -13 -13 -13 -13 -14 -13 -14 -14 -13 -13 -13 -14 -14 -14
-18 -18 -17 -16 -16 -16 -15 -15 -15 -14 -14 -14 -13 -14 -15 -15 -16 -15 -15 -15 -15 -15 -15 -15 -14 -13 -13 -13 -13 -14 -13 -13 -13 -14 -14 -13 -13 -15 -14 -13 -13 -13 -13 -14
-19 -18 -18 -17 -17 -16 -16 -15 -15 -14 -14 -14 -14 -14 -15 -16 -16 -16 -15 -15 -16 -15 -15 -15 -14 -14 -13 -13 -13 -14 -14 -14 -14 -14 -14 -14 -13 -13 -15 -14 -14 -14 -14 -14
-19 -19 -19 -18 -18 -17 -16 -16 -16 -15 -15 -15 -15 -15 -16 -16 -16 -16 -16 -16 -15 -15 -15 -15 -15 -14 -14 -14 -14 -14 -14 -14 -14 -14 -14 -14 -14 -13 -13 -14 -14 -15 -15 -15
-20 -20 -20 -19 -18 -18 -17 -16 -16 -16 -15 -16 -16 -16 -16 -16 -16 -15 -16 -15 -15 -16 -15 -15 -15 -15 -14 -14 -14 -14 -14 -14 -14 -14 -14 -14 -14 -14 -14 -13 -14 -14 -14 -15
-20 -20 -20 -20 -19 -18 -18 -17 -17 -17 -16 -16 -17 -17 -16 -16 -15 -15 -16 -16 -16 -16 -16 -15 -15 -15 -14 -14 -14 -14 -14 -14 -14 -14 -14 -14 -14 -14 -14 -14 -14 -14 -14 -14
-21 -21 -21 -20 -19 -19 -18 -18 -18 -17 -17 -18 -18 -18 -17 -15 -14 -16 -17 -16 -15 -15 -15 -15 -15 -15 -15 -15 -14 -14 -14 -14 -14 -14 -14 -14 -14 -14 -14 -14 -14 -14 -14 -14
-21 -21 -20 -21 -20 -18 -18 -18 -18 -18 -19 -19 -19 -18 -18 -16 -15 -15 -16 -16 -15 -15 -15 -15 -15 -15 -15 -15 -14 -14 -14 -15 -15 -15 -15 -14 -15 -14 -14 -15 -14 -14 -14 -14
-21 -21 -21 -20 -20 -18 -19 -21 -20 -20 -19 -19 -19 -18 -18 -17 -17 -17 -16 -16 -16 -16 -15 -15 -15 -15 -15 -15 -15 -14 -14 -15 -15 -15 -15 -15 -15 -15 -14 -14 -15 -15 -15 -15
-20 -20 -20 -20 -19 -21 -21 -22 -22 -21 -21 -20 -20 -19 -18 -18 -18 -18 -17 -16 -16 -16 -16 -15 -15 -16 -16 -16 -15 -15 -14 -15 -15 -15 -15 -15 -15 -15 -15 -15 -15 -15 -15 -15
-20 -20 -20 -20 -20 -20 -21 -21 -23 -22 -21 -20 -19 -19 -18 -18 -18 -18 -18 -17 -17 -16 -16 -16 -16 -15 -16 -16 -16 -15 -15 -15 -15 -15 -15 -15 -15 -16 -15 -15 -15 -15 -15 -16
-20 -20 -20 -20 -20 -20 -21 -21 -22 -22 -22 -21 -21 -20 -19 -18 -18 -17 -17 -17 -17 -17 -16 -16 -16 -16 -16 -16 -16 -16 -15 -15 -15 -15 -16 -15 -16 -16 -16 -16 -15 -15 -15 -16
-20 -20 -20 -20 -20 -20 -21 -22 -22 -22 -22 -21 -21 -21 -20 -20 -19 -18 -17 -17 -17 -17 -17 -16 -16 -16 -16 -16 -16 -16 -16 -16 -15 -16 -16 -16 -16 -16 -16 -16 -16 -16 -16 -16
Height
5762 5764 5770 5765 5766 5768 5768 5767 5768 5766 5765 5767 5765 5766 5761 5758 5759 5758 5756 5754 5753 5751 5749 5746 5744 5743 5739 5735 5732 5726 5720 5715 5709 5703 5695 5687 5678 5666 5652 5637 5618 5604 5601 5600
5755 5758 5757 5758 5761 5762 5762 5762 5763 5761 5760 5760 5761 5762 5757 5755 5755 5754 5752 5751 5749 5747 5745 5743 5741 5739 5735 5731 5727 5722 5716 5710 5704 5697 5689 5680 5668 5656 5640 5620 5601 5593 5591 5592
5745 5749 5750 5751 5753 5755 5755 5756 5756 5755 5754 5755 5755 5758 5754 5750 5751 5750 5748 5746 5745 5743 5741 5739 5738 5735 5731 5727 5723 5717 5711 5706 5699 5692 5684 5673 5662 5647 5628 5608 5594 5589 5588 5590
5735 5740 5744 5744 5747 5747 5748 5749 5749 5748 5748 5749 5751 5750 5751 5748 5747 5746 5744 5743 5741 5740 5738 5736 5734 5731 5727 5723 5719 5714 5708 5702 5696 5689 5679 5668 5656 5639 5620 5602 5589 5587 5587 5589
5727 5731 5734 5736 5739 5740 5742 5743 5742 5742 5741 5742 5747 5743 5748 5744 5744 5742 5740 5739 5737 5736 5733 5731 5730 5727 5724 5719 5715 5711 5705 5700 5694 5686 5674 5664 5652 5633 5616 5601 5589 5587 5587 5588
5717 5722 5726 5728 5731 5732 5734 5736 5736 5735 5734 5734 5741 5739 5745 5741 5741 5739 5737 5736 5734 5732 5729 5728 5726 5723 5719 5716 5713 5709 5704 5698 5692 5684 5672 5662 5649 5632 5618 5603 5592 5589 5589 5591
5710 5712 5716 5719 5721 5724 5727 5729 5728 5727 5728 5729 5734 5734 5739 5737 5737 5736 5734 5732 5730 5729 5726 5724 5723 5719 5716 5714 5711 5707 5702 5696 5689 5682 5671 5661 5649 5635 5622 5608 5598 5595 5596 5598
5698 5703 5706 5709 5713 5716 5718 5720 5721 5719 5721 5723 5725 5727 5734 5733 5733 5732 5731 5729 5728 5725 5723 5722 5720 5716 5714 5712 5709 5705 5700 5694 5688 5681 5671 5662 5651 5638 5626 5615 5606 5603 5604 5605
5687 5691 5695 5699 5703 5707 5709 5711 5715 5713 5713 5712 5715 5723 5728 5728 5728 5728 5727 5726 5724 5722 5720 5718 5717 5714 5712 5709 5706 5703 5699 5693 5688 5681 5672 5663 5655 5644 5632 5623 5614 5612 5611 5613
5676 5682 5685 5689 5691 5695 5698 5704 5704 5705 5705 5705 5705 5715 5722 5723 5723 5723 5722 5721 5720 5719 5717 5715 5713 5711 5709 5707 5704 5701 5698 5692 5689 5683 5674 5666 5660 5650 5638 5632 5625 5622 5622 5624
5665 5670 5676 5679 5682 5684 5688 5690 5695 5698 5698 5697 5699 5706 5714 5717 5717 5717 5717 5716 5715 5714 5714 5713 5710 5708 5706 5705 5702 5700 5697 5693 5689 5684 5677 5670 5665 5656 5648 5640 5636 5635 5635 5636
5655 5658 5662 5668 5671 5674 5676 5680 5682 5685 5690 5692 5691 5694 5705 5710 5711 5711 5710 5710 5709 5709 5709 5708 5707 5704 5704 5702 5700 5698 5696 5693 5689 5686 5680 5673 5670 5662 5659 5655 5652 5650 5648 5648
5642 5647 5651 5656 5660 5664 5667 5670 5671 5674 5679 5680 5681 5684 5699 5701 5703 5702 5703 5703 5702 5704 5704 5703 5703 5701 5700 5699 5698 5697 5695 5693 5689 5687 5683 5677 5674 5669 5666 5665 5662 5660 5659 5656
5630 5635 5639 5645 5647 5652 5656 5657 5658 5662 5665 5668 5672 5675 5688 5692 5693 5693 5693 5696 5697 5698 5699 5699 5699 5698 5697 5697 5696 5695 5694 5692 5689 5688 5684 5680 5677 5674 5670 5669 5667 5664 5664 5663
5620 5624 5627 5631 5634 5638 5643 5647 5649 5652 5658 5658 5662 5665 5678 5682 5683 5684 5683 5688 5690 5692 5693 5694 5694 5694 5693 5694 5693 5692 5691 5691 5689 5688 5685 5683 5679 5677 5674 5671 5671 5669 5667 5666
5609 5614 5617 5621 5623 5625 5632 5639 5640 5642 5646 5650 5653 5657 5668 5672 5672 5674 5676 5680 5683 5683 5686 5687 5688 5689 5689 5689 5690 5689 5688 5689 5688 5688 5685 5684 5681 5679 5678 5674 5672 5674 5674 5672
5599 5604 5607 5612 5612 5612 5623 5632 5632 5636 5637 5641 5642 5652 5654 5656 5660 5666 5668 5670 5673 5675 5678 5680 5681 5683 5684 5684 5685 5686 5685 5685 5686 5686 5685 5683 5682 5681 5679 5677 5674 5673 5674 5675
5588 5593 5596 5599 5601 5603 5619 5619 5623 5625 5628 5629 5632 5636 5638 5641 5648 5651 5653 5657 5663 5667 5670 5672 5673 5675 5678 5679 5680 5681 5681 5682 5683 5684 5683 5682 5682 5680 5680 5678 5676 5675 5675 5675
5576 5580 5584 5587 5589 5599 5609 5610 5612 5616 5623 5617 5617 5620 5622 5624 5632 5642 5647 5648 5652 5657 5660 5663 5667 5669 5671 5673 5674 5676 5677 5678 5679 5680 5681 5680 5680 5680 5679 5678 5677 5676 5676 5677
5564 5568 5572 5574 5578 5586 5601 5599 5600 5606 5613 5605 5607 5608 5610 5614 5622 5631 5631 5634 5639 5644 5646 5652 5656 5660 5663 5665 5667 5669 5672 5673 5674 5676 5677 5677 5677 5679 5678 5679 5677 5677 5677 5677
5554 5556 5559 5565 5566 5575 5583 5581 5584 5593 5599 5595 5597 5601 5603 5605 5609 5615 5621 5624 5628 5632 5635 5639 5644 5650 5653 5657 5661 5663 5666 5667 5669 5671 5673 5674 5675 5676 5677 5678 5678 5677 5678 5679
5544 5546 5550 5555 5555 5559 5564 5571 5574 5578 5579 5582 5588 5593 5596 5597 5599 5602 5607 5611 5617 5622 5625 5630 5635 5639 5643 5647 5652 5655 5658 5661 5664 5665 5667 5669 5671 5672 5673 5674 5676 5678 5678 5679
5531 5538 5542 5545 5548 5550 5551 5557 5560 5561 5564 5570 5577 5581 5586 5587 5591 5593 5597 5599 5604 5609 5612 5620 5626 5628 5633 5637 5643 5646 5650 5654 5657 5659 5662 5663 5665 5668 5668 5670 5672 5674 5676 5676
5520 5527 5528 5532 5536 5537 5540 5543 5545 5547 5552 5558 5562 5567 5572 5576 5580 5583 5587 5589 5592 5598 5602 5608 5614 5619 5623 5627 5632 5636 5641 5645 5649 5652 5655 5657 5659 5662 5664 5665 5667 5669 5671 5673
5510 5513 5516 5519 5521 5528 5529 5530 5532 5534 5540 5542 5548 5551 5556 5562 5568 5572 5576 5577 5579 5585 5591 5596 5602 5608 5612 5616 5620 5626 5632 5636 5641 5645 5648 5651 5653 5656 5658 5659 5661 5663 5665 5668
5498 5503 5504 5507 5512 5514 5516 5518 5520 5522 5527 5529 5536 5539 5543 5548 5554 5560 5565 5569 5569 5573 5577 5584 5589 5594 5599 5604 5610 5616 5622 5627 5632 5636 5640 5643 5646 5649 5651 5653 5655 5657 5659 5662
Wind_Speed
44 40 31 35 37 32 29 29 27 29 30 28 29 23 25 26 20 17 18 19 18 16 16 18 21 23 23 25 27 29 30 31 34 36 38 45 52 52 56 64 64 52 32 31
44 38 36 37 34 34 31 29 27 29 31 30 27 22 25 23 21 18 18 17 16 15 15 18 20 22 23 25 27 29 29 31 33 35 41 48 46 53 61 63 52 27 25 19
44 38 37 35 35 35 32 30 29 31 31 30 29 21 21 23 19 17 17 16 14 13 15 18 19 20 23 22 25 27 29 29 31 36 43 45 46 58 62 58 31 17 7 6
42 39 36 36 36 37 33 32 31 32 32 29 27 24 17 20 18 18 16 14 14 13 15 17 18 20 20 21 24 27 29 28 31 36 42 38 50 60 54 48 25 12 5 6
40 38 38 37 37 38 35 33 32 33 33 31 24 30 15 18 16 15 14 14 14 14 15 16 17 20 19 22 23 27 27 27 30 37 36 38 52 54 47 42 18 11 1 10
40 40 39 38 38 39 38 35 34 35 34 36 25 28 14 18 17 15 13 13 14 13 15 15 17 19 19 21 23 25 24 26 30 36 35 37 52 45 40 35 22 8 6 14
38 39 38 39 40 39 38 36 38 39 37 35 28 29 17 18 17 16 14 14 14 14 14 14 16 19 19 19 21 22 22 25 30 35 32 35 47 46 36 31 24 11 12 11
43 43 42 40 40 40 39 39 40 42 40 37 35 31 20 20 20 19 17 16 15 13 14 14 15 18 17 18 18 20 20 23 29 34 33 32 41 47 33 30 19 15 12 14
43 45 43 43 41 42 43 42 39 42 43 43 39 31 21 21 21 21 20 18 17 15 14 14 15 17 15 16 16 18 18 22 27 33 33 31 38 43 31 25 25 19 15 18
48 46 45 42 45 46 48 44 43 44 47 46 45 33 23 21 21 21 21 20 19 17 16 16 16 16 14 13 13 16 17 20 25 30 32 31 33 35 31 22 26 23 23 21
50 51 50 47 46 48 50 51 48 47 49 49 46 37 28 22 21 22 23 21 22 18 17 18 16 15 14 11 11 13 14 18 22 25 32 29 28 31 33 30 27 22 20 19
45 49 51 50 48 47 49 51 53 53 51 50 51 45 33 27 25 24 23 23 24 21 18 18 17 15 15 9 8 10 12 15 18 22 28 27 27 30 27 27 29 23 19 18
48 48 48 49 49 47 45 48 52 55 55 55 56 51 32 31 28 29 26 26 27 23 21 18 18 15 14 8 7 7 10 12 14 19 22 27 20 24 20 22 14 17 21 18
44 48 50 48 48 47 44 44 51 57 59 58 55 52 38 33 33 33 31 29 29 26 22 20 19 16 15 9 7 6 8 9 10 14 17 21 18 21 19 14 12 11 8 10
45 46 47 48 49 49 47 45 46 48 51 58 58 56 45 40 41 40 40 33 30 29 25 21 20 18 16 12 9 6 7 8 7 9 12 15 19 15 15 17 14 10 5 5
41 40 43 47 49 50 48 47 49 49 45 47 54 57 47 39 43 46 45 39 32 34 26 20 21 20 17 15 12 9 7 8 6 7 6 10 13 14 9 11 8 11 9 13
39 41 42 42 44 48 47 42 42 42 46 46 46 44 40 39 38 41 44 42 37 37 29 24 22 21 19 16 15 12 9 9 8 7 5 5 6 9 12 8 9 6 5 11
51 46 41 42 45 44 37 39 37 38 38 42 48 49 51 47 45 41 43 42 39 40 36 32 25 23 22 19 18 16 12 11 10 8 8 4 4 4 7 10 9 10 6 3
53 52 53 56 49 45 36 35 36 36 29 33 35 45 50 48 47 43 40 40 39 38 39 33 28 26 24 22 20 19 16 14 13 11 10 9 7 4 1 4 7 10 8 6
44 46 47 50 60 61 47 50 48 42 33 31 28 32 40 50 48 36 43 46 43 40 40 36 32 29 28 26 24 23 21 18 16 15 13 12 11 10 5 3 1 5 8 9
43 44 46 45 49 55 56 53 51 50 43 39 35 29 28 34 43 45 39 44 46 44 44 43 38 35 32 29 27 25 24 23 19 18 17 15 13 13 11 7 5 4 4 5
42 43 43 42 44 40 44 42 43 46 50 48 44 41 35 23 26 32 37 42 44 48 49 47 40 38 38 33 31 27 27 25 23 22 21 18 17 16 16 14 10 9 8 7
44 40 39 39 37 38 41 40 42 44 46 47 40 39 37 32 30 27 26 38 39 45 49 45 38 37 39 35 33 30 30 27 27 26 25 22 19 20 19 18 16 15 12 11
45 42 43 42 40 41 43 44 48 49 48 47 50 49 49 46 37 35 31 32 36 44 45 45 44 39 39 37 34 34 31 31 31 29 27 25 22 21 21 20 19 17 16 14
47 46 46 45 44 41 44 47 50 53 53 55 52 51 51 50 43 45 36 34 40 38 45 45 43 45 43 41 39 35 32 33 32 31 29 28 25 23 22 23 23 21 21 17
48 47 48 47 45 45 44 44 48 52 54 56 58 59 57 49 43 41 37 35 36 43 46 49 50 50 49 45 42 38 35 34 34 33 31 29 28 27 25 26 27 25 23 22
Wind_Direction
264 265 267 252 255 263 266 270 273 271 272 276 287 301 286 289 288 282 277 281 285 293 303 309 308 310 314 317 319 323 321 321 321 322 320 317 317 317 319 315 311 303 293 286
261 260 250 252 254 260 266 271 272 268 272 275 284 297 292 282 283 281 276 281 283 292 300 303 303 309 316 319 325 327 327 327 326 326 321 322 318 323 322 326 321 306 287 270
255 252 248 247 251 257 263 270 268 269 268 274 282 292 290 284 283 282 275 276 280 291 297 296 304 312 316 323 326 328 330 331 330 325 326 324 325 327 326 336 329 323 274 287
249 249 246 248 250 253 259 266 265 269 269 269 280 287 290 287 287 287 280 277 282 288 289 300 308 311 319 328 331 333 335 333 328 326 329 327 333 336 339 346 337 296 280 255
246 243 243 244 247 250 258 260 264 267 267 268 278 284 289 293 285 285 281 280 285 290 296 304 305 312 327 331 335 336 336 331 329 335 329 326 335 340 350 354 351 329 339 193
242 242 243 245 245 249 253 253 259 262 265 263 271 276 284 287 290 287 286 285 289 292 299 303 307 313 333 334 334 335 335 332 332 341 328 330 344 348 357 4 13 24 109 159
242 242 242 244 246 245 248 251 257 259 259 266 267 268 276 278 282 287 290 293 295 298 303 303 313 315 333 333 333 336 335 333 334 342 330 329 345 359 360 17 25 66 106 125
242 240 243 243 240 242 244 249 253 259 260 262 263 264 269 272 276 280 289 292 304 304 301 308 311 312 331 332 334 337 337 334 338 343 340 344 351 1 8 28 37 62 91 111
242 239 240 243 239 238 240 247 251 255 259 262 261 260 262 268 269 278 286 293 300 310 300 302 303 313 326 332 335 338 339 334 341 346 348 346 348 1 15 29 42 62 86 106
244 245 245 242 239 237 239 243 246 248 256 259 262 261 261 265 268 271 280 285 291 306 306 298 301 310 318 331 337 340 340 334 342 350 358 355 359 10 22 43 49 75 92 110
245 245 246 247 245 241 239 242 244 247 250 257 262 259 257 259 262 267 276 281 287 301 303 300 298 304 311 326 335 339 341 336 341 354 5 5 21 25 32 53 62 74 96 134
244 245 244 245 246 246 246 246 242 241 247 252 257 257 258 254 258 265 271 277 283 291 297 295 295 297 303 314 325 336 340 337 340 351 8 11 29 38 60 89 92 103 120 121
244 246 246 246 246 248 250 251 245 240 244 248 253 257 252 253 252 253 260 267 276 284 297 291 292 290 294 298 306 327 331 337 339 344 10 14 38 50 63 87 88 80 89 92
244 245 246 248 247 248 247 247 246 243 243 247 248 253 244 242 245 250 253 255 267 274 287 285 283 284 286 278 280 302 317 331 333 338 7 18 30 55 74 91 86 111 111 104
242 243 244 246 249 247 245 247 251 251 252 250 250 252 250 246 245 245 248 251 256 266 276 270 276 274 275 269 260 271 293 310 318 322 1 16 22 58 64 88 84 106 113 107
242 244 245 245 247 249 249 250 251 252 253 256 256 255 255 251 250 249 252 252 248 257 263 260 267 266 262 262 254 253 264 285 291 295 343 5 24 29 92 99 101 127 106 81
242 247 245 243 246 250 248 249 253 255 258 262 259 261 250 252 250 249 254 252 250 251 255 256 255 261 257 253 249 246 243 257 268 270 278 341 12 24 38 116 129 117 156 149
242 245 245 247 243 244 249 249 252 254 256 258 259 258 254 256 248 248 249 250 248 252 254 253 248 254 252 248 244 243 235 240 250 252 251 264 304 7 22 41 112 146 140 168
250 254 252 250 244 240 240 252 259 258 257 263 259 256 255 256 247 245 247 247 249 252 255 251 245 251 249 246 245 240 232 231 235 240 241 232 251 251 355 32 64 93 135 198
252 252 252 251 252 248 252 257 257 257 254 257 260 256 256 254 255 252 231 240 242 240 242 241 243 247 248 244 240 237 233 228 227 233 235 232 231 245 227 218 169 108 114 115
250 252 254 255 257 254 253 257 252 246 253 256 258 259 263 260 253 250 242 243 244 244 244 241 241 240 247 245 240 238 234 229 225 228 232 231 226 234 239 236 238 212 183 153
250 251 254 256 257 258 255 248 250 252 251 253 258 259 261 257 261 262 245 239 240 242 247 245 242 240 246 237 234 231 231 229 225 224 230 227 233 227 232 232 232 234 234 232
249 253 258 258 261 261 259 255 253 249 249 252 252 249 247 254 266 273 263 241 237 234 240 243 241 238 233 228 229 228 230 226 227 223 227 229 230 233 229 233 233 238 249 251
249 249 252 255 255 255 254 254 249 249 249 247 248 244 247 254 259 264 269 250 238 236 237 237 232 235 226 221 223 226 225 224 228 225 224 228 229 232 233 232 235 240 248 256
249 249 251 253 255 253 252 250 251 251 250 248 249 252 253 252 254 258 259 258 235 232 237 235 229 227 221 217 217 223 222 224 227 227 227 227 226 226 230 233 233 237 240 245
249 253 255 259 257 258 256 252 251 251 251 254 252 255 256 258 246 247 248 258 242 227 230 235 227 223 221 218 217 218 220 224 226 226 225 225 223 225 226 232 233 234 239 241